Time,TemperatureF,DewpointF,PressureIn,WindDirection,WindDirectionDegrees,WindSpeedMPH,WindSpeedGustMPH,Humidity,HourlyPrecipIn,Conditions,Clouds,dailyrainin,SoftwareType,DateUTC
2013-07-16 00:01:00,65.0,-99.9,-100.00,North,-999,-999.0,-999.0,-999,0.00,,,0.00,,2013-07-16 06:01:00,
2013-07-16 00:12:00,65.0,-99.9,-100.00,North,-999,-999.0,-999.0,-999,0.00,,,0.00,,2013-07-16 06:12:00,
2013-07-16 01:53:00,62.0,-99.9,-100.00,North,-999,-999.0,-999.0,-999,0.00,,,0.00,,2013-07-16 07:53:00,
2013-07-16 02:02:00,62.0,-99.9,-100.00,North,-999,-999.0,-999.0,-999,0.00,,,0.00,,2013-07-16 08:02:00,
2013-07-16 02:11:00,62.0,-99.9,-100.00,North,-999,-999.0,-999.0,-999,0.00,,,0.00,,2013-07-16 08:11:00,
2013-07-16 02:52:00,64.0,-99.9,-100.00,North,-999,-999.0,-999.0,-999,0.00,,,0.00,,2013-07-16 08:52:00,
2013-07-16 03:01:00,64.0,-99.9,-100.00,North,-999,-999.0,-999.0,-999,0.00,,,0.00,,2013-07-16 09:01:00,
2013-07-16 03:12:00,64.0,-99.9,-100.00,North,-999,-999.0,-999.0,-999,0.00,,,0.00,,2013-07-16 09:12:00,
2013-07-16 03:52:00,62.0,-99.9,-100.00,North,-999,-999.0,-999.0,-999,0.00,,,0.00,,2013-07-16 09:52:00,
2013-07-16 04:01:00,62.0,-99.9,-100.00,North,-999,-999.0,-999.0,-999,0.00,,,0.00,,2013-07-16 10:01:00,
2013-07-16 04:11:00,62.0,-99.9,-100.00,North,-999,-999.0,-999.0,-999,0.00,,,0.00,,2013-07-16 10:11:00,
2013-07-16 04:52:00,60.0,-99.9,-100.00,North,-999,-999.0,-999.0,-999,0.00,,,0.00,,2013-07-16 10:52:00,
2013-07-16 05:02:00,60.0,-99.9,-100.00,North,-999,-999.0,-999.0,-999,0.00,,,0.00,,2013-07-16 11:02:00,
2013-07-16 05:11:00,60.0,-99.9,-100.00,North,-999,-999.0,-999.0,-999,0.00,,,0.00,,2013-07-16 11:11:00,
2013-07-16 05:53:00,55.0,-99.9,-100.00,North,-999,-999.0,-999.0,-999,0.00,,,0.00,,2013-07-16 11:53:00,
2013-07-16 06:01:00,55.0,-99.9,-100.00,North,-999,-999.0,-999.0,-999,0.00,,,0.00,,2013-07-16 12:01:00,
2013-07-16 06:11:00,55.0,-99.9,-100.00,North,-999,-999.0,-999.0,-999,0.00,,,0.00,,2013-07-16 12:11:00,
2013-07-16 07:01:00,56.0,-99.9,-100.00,North,-999,-999.0,-999.0,-999,0.00,,,0.00,,2013-07-16 13:01:00,
2013-07-16 07:11:00,56.0,-99.9,-100.00,North,-999,-999.0,-999.0,-999,0.00,,,0.00,,2013-07-16 13:11:00,
2013-07-16 07:52:00,65.0,-99.9,-100.00,North,-999,-999.0,-999.0,-999,0.00,,,0.00,,2013-07-16 13:52:00,
2013-07-16 08:02:00,65.0,-99.9,-100.00,North,-999,-999.0,-999.0,-999,0.00,,,0.00,,2013-07-16 14:02:00,
2013-07-16 08:11:00,65.0,-99.9,-100.00,North,-999,-999.0,-999.0,-999,0.00,,,0.00,,2013-07-16 14:11:00,
2013-07-16 09:53:00,71.0,-99.9,-100.00,North,-999,-999.0,-999.0,-999,-99.99,,,0.00,,2013-07-16 15:53:00,
2013-07-16 10:02:00,71.0,-99.9,-100.00,North,-999,-999.0,-999.0,-999,-99.99,,,0.00,,2013-07-16 16:02:00,
2013-07-16 10:11:00,71.0,-99.9,-100.00,North,-999,-999.0,-999.0,-999,-99.99,,,0.00,,2013-07-16 16:11:00,
2013-07-16 10:52:00,69.0,-99.9,-100.00,North,-999,-999.0,-999.0,-999,0.00,,,0.00,,2013-07-16 16:52:00,
2013-07-16 11:02:00,69.0,-99.9,-100.00,North,-999,-999.0,-999.0,-999,0.00,,,0.00,,2013-07-16 17:02:00,
2013-07-16 11:12:00,69.0,-99.9,-100.00,North,-999,-999.0,-999.0,-999,0.00,,,0.00,,2013-07-16 17:12:00,
2013-07-16 11:53:00,73.0,-99.9,-100.00,North,-999,-999.0,-999.0,-999,0.00,,,0.00,,2013-07-16 17:53:00,
2013-07-16 12:02:00,73.0,-99.9,-100.00,North,-999,-999.0,-999.0,-999,0.00,,,0.00,,2013-07-16 18:02:00,
2013-07-16 12:12:00,73.0,-99.9,-100.00,North,-999,-999.0,-999.0,-999,0.00,,,0.00,,2013-07-16 18:12:00,
2013-07-16 12:53:00,73.0,-99.9,-100.00,North,-999,-999.0,-999.0,-999,0.00,,,0.00,,2013-07-16 18:53:00,
2013-07-16 13:01:00,73.0,-99.9,-100.00,North,-999,-999.0,-999.0,-999,0.00,,,0.00,,2013-07-16 19:01:00,
2013-07-16 13:11:00,73.0,-99.9,-100.00,North,-999,-999.0,-999.0,-999,0.00,,,0.00,,2013-07-16 19:11:00,
2013-07-16 13:53:00,72.0,-99.9,-100.00,North,-999,-999.0,-999.0,-999,0.00,,,0.00,,2013-07-16 19:53:00,
2013-07-16 14:03:00,72.0,-99.9,-100.00,North,-999,-999.0,-999.0,-999,0.00,,,0.00,,2013-07-16 20:03:00,
2013-07-16 14:12:00,72.0,-99.9,-100.00,North,-999,-999.0,-999.0,-999,0.00,,,0.00,,2013-07-16 20:12:00,
2013-07-16 14:52:00,72.0,-99.9,-100.00,North,-999,-999.0,-999.0,-999,0.00,,,0.00,,2013-07-16 20:52:00,
2013-07-16 15:02:00,72.0,-99.9,-100.00,North,-999,-999.0,-999.0,-999,0.00,,,0.00,,2013-07-16 21:02:00,
2013-07-16 15:11:00,72.0,-99.9,-100.00,North,-999,-999.0,-999.0,-999,0.00,,,0.00,,2013-07-16 21:11:00,
2013-07-16 15:52:00,72.0,-99.9,-100.00,North,-999,-999.0,-999.0,-999,0.00,,,0.00,,2013-07-16 21:52:00,
2013-07-16 16:02:00,72.0,-99.9,-100.00,North,-999,-999.0,-999.0,-999,0.00,,,0.00,,2013-07-16 22:02:00,
2013-07-16 16:11:00,72.0,-99.9,-100.00,North,-999,-999.0,-999.0,-999,0.00,,,0.00,,2013-07-16 22:11:00,
2013-07-16 16:53:00,71.0,-99.9,-100.00,North,-999,-999.0,-999.0,-999,0.00,,,0.00,,2013-07-16 22:53:00,
2013-07-16 17:02:00,71.0,-99.9,-100.00,North,-999,-999.0,-999.0,-999,0.00,,,0.00,,2013-07-16 23:02:00,
2013-07-16 17:11:00,71.0,-99.9,-100.00,North,-999,-999.0,-999.0,-999,0.00,,,0.00,,2013-07-16 23:11:00,
2013-07-16 17:52:00,68.0,-99.9,-100.00,North,-999,-999.0,-999.0,-999,0.00,,,0.00,,2013-07-16 23:52:00,
2013-07-16 18:01:00,68.0,-99.9,-100.00,North,-999,-999.0,-999.0,-999,0.00,,,0.00,,2013-07-17 00:01:00,
2013-07-16 18:12:00,68.0,-99.9,-100.00,North,-999,-999.0,-999.0,-999,0.00,,,0.00,,2013-07-17 00:12:00,
2013-07-16 19:53:00,61.0,-99.9,-100.00,North,-999,-999.0,-999.0,-999,-99.99,,,0.11,,2013-07-17 01:53:00,
2013-07-16 20:02:00,61.0,-99.9,-100.00,North,-999,-999.0,-999.0,-999,-99.99,,,0.11,,2013-07-17 02:02:00,
2013-07-16 20:11:00,61.0,-99.9,-100.00,North,-999,-999.0,-999.0,-999,-99.99,,,0.11,,2013-07-17 02:11:00,
2013-07-16 20:53:00,59.0,-99.9,-100.00,North,-999,-999.0,-999.0,-999,0.05,,,0.16,,2013-07-17 02:53:00,
2013-07-16 21:02:00,59.0,-99.9,-100.00,North,-999,-999.0,-999.0,-999,0.05,,,0.16,,2013-07-17 03:02:00,
2013-07-16 21:11:00,59.0,-99.9,-100.00,North,-999,-999.0,-999.0,-999,0.05,,,0.16,,2013-07-17 03:11:00,
2013-07-16 21:53:00,60.0,-99.9,-100.00,North,-999,-999.0,-999.0,-999,0.00,,,-99.99,,2013-07-17 03:53:00,
2013-07-16 22:02:00,60.0,-99.9,-100.00,North,-999,-999.0,-999.0,-999,0.00,,,-99.99,,2013-07-17 04:02:00,
2013-07-16 22:12:00,60.0,-99.9,-100.00,North,-999,-999.0,-999.0,-999,0.00,,,-99.99,,2013-07-17 04:12:00,
2013-07-16 22:53:00,60.0,-99.9,-100.00,North,-999,-999.0,-999.0,-999,0.01,,,0.17,,2013-07-17 04:53:00,
2013-07-16 23:02:00,60.0,-99.9,-100.00,North,-999,-999.0,-999.0,-999,0.01,,,0.17,,2013-07-17 05:02:00,
2013-07-16 23:11:00,60.0,-99.9,-100.00,North,-999,-999.0,-999.0,-999,0.01,,,0.17,,2013-07-17 05:11:00,
2013-07-16 23:52:00,60.0,-99.9,-100.00,North,-999,-999.0,-999.0,-999,0.00,,,0.17,,2013-07-17 05:52:00,